星链-1405 (STARLINK-1405 )

导读 | 星芒AI

STARLINK-1405 是 SpaceX Starlink 项目中的一颗低轨通信卫星,属于第 14 批部署的 Starlink 卫星群。该卫星于 2021 年 10 月 31 日由猎鹰 9 号火箭从卡纳维拉尔角发射升空。它运行在约 550 公里的高度,旨在为全球提供高速互联网服务。Starlink 卫星采用先进的相控阵天线和激光通信技术,以提升网络性能和覆盖范围。STARLINK-1405 与其他卫星协同工作,支持 Starlink 在农村和偏远地区的宽带接入。

基本信息
目录编号:
45702
目录名称:
STARLINK-1405
国际标识:
2020-035AX
轨道中心:
EARTH
卫星名称:
星链-1405
卫星全名:
星链-1405 (STARLINK-1405 )
卫星状态:
已陨落 最后检测时间 2025-08-21
发射日期:
2020-06-04 UTC
国别 :
美国 (US)
星等 :
--
轨道信息
数据来源 国际轨道数据
星历时间: 2025-08-21T14:17:23+0800
轨道信息已过期116天
半长轴: 6560.276km
偏心率: 0.0008707
轨道倾角: 53.016°
近地点辐角 237.286°
升交点赤经 153.062°
平近点角 122.734°
近地点: 176.428km
远地点: 187.854km
周期: 88.134分钟
每日圈数: 16.338782
详细信息
固有亮度:
5
最大亮度:
2.5
卫星平台:
Starlink V1.0
覆盖范围:
全球
运营商:
太空探索技术公司
运营商所在国:
美国
制造商(研发单位):
太空探索技术公司
制造商所在国:
美国
使用方式:
暂无
卫星简介
星链(Starlink)计划是由太空探索技术公司(SpaceX)提出的一个巨型低轨卫星互联网星座项目,计划在2019年至2024年间在太空搭建由约1.2万颗卫星组成的“星链”网络,其中1584颗将部署在地球上空550千米处的近地轨道,并从2020年开始工作。该卫星仍在工作。